SL-16 DEB

Satellite information

Favourite Embed

Satellite Type and Status

DEBRISIN ORBIT

Key statistics

Satellite SL-16 DEB at a glance.

Uptime

11894

Days in orbit

Revolutions

≈ 14.3

Per day

Orbit

LEO

Low Earth Orbit

Inclination

71.0

Latest

Satellite identification and parameters

Extended collection of information and parameters for SL-16 DEB.

Object identification

Identified? True

Debris? True

Object name: SL-16 DEB

International designator: 1993-016CJ

Object number (NORAD): 39908

Object ID (CCSDS): 39908

Country: COMMONWEALTH OF INDEPENDENT STATES (CIS)

Current information (Y/N): Y

RCS size: SMALL

Orbital parameters

Period: 100.936 minutes

Inclination: 71.0021 deg

SMA: 7181.122 km

Apoapsis: 809.199 km

Periapsis: 796.775 km

RAAN: 303.9987 deg

Eccentricy: 0.00086503

Argument of periapsis: 11.8308 deg

Mean anomaly: 348.3022 deg

Mean motion: 14.26639805 rev/day

Mean motion (dot): 0.00001061 rev/day2

B* drag term: 0.00045917701 1/REarth

Two-line elements (TLE)

Creation date: Oct. 18, 2025, 2:17 a.m.

Reference frame: TEME

Reference center: EARTH

Epoch: Oct. 17, 2025, 4:20 p.m. UTC

TLE line 0: 0 SL-16 DEB

TLE line 1: 1 39908U 93016CJ 25290.68107562 .00001061 00000-0 45918-3 0 9999

TLE line 2: 2 39908 71.0021 303.9987 0008650 11.8308 348.3022 14.26639805590832

Live tracking on map

Real-time ground track for satellite SL-16 DEB.

In-orbit conjunctions

A list of the most updated potential collisions computed for object SL-16 DEB.

Target Orbit TCA Probability of collision Miss distance Type
FENGYUN 1C DEB SSO 2025-04-04 07:33:43 0.0001075314 175.0 (m) DEBRIS
CZ-6A DEB LEO 2025-02-14 15:09:54 0.0002193251 313.0 (m) DEBRIS

Associated space launch

Second generation ELING satellite

SL-16 DEB was lifted into orbit during the mission ‘Zenit-2 | Tselina-2 13’, on board a Zenit-2 space rocket.

The launch took place on March 26, 1993, 2:21 a.m. from 45/1.

For more information about the launch, click the button.

Launch to space Zenit-2 | Tselina-2 13
Zenit-2 | Tselina-2 13

Agency: N/A

Status: Launch Successful

Launch date: March 26, 1993, 2:21 a.m. UTC

Rocket: Zenit-2

Launch pad: 45/1

Location: Baikonur Cosmodrome, Republic of Kazakhstan

...

Latest news about this satellite

There are no fresh news available about this satellite. Check back as we update our databases every day.


Newsletter sign-up

Weekly statistics, charts and insights to help you stay on top of the space industry.